YBASYPDN

Guest
Details From YBAS - Alice Springs
To YPDN - Darwin Intl
Flight Number -
Tags Generated
Created
Modified
Stats Distance 705 nm / 1,306 km
Max Altitude 0 ft / 0 m
Waypoints 3
Social Downloads 1
Likes 0
Share VATSIM

Download

Looking for another format? Having issues loading an existing format? Contact us
Advertisement - Login to hide

Notes

Generated

Route

YBAS TINEN YPDN

ID Type Via Altitude Latitude Longitude Leg Dist Tot Dist Heading (true) Name
O YBAS APT - 0 ft / 0 m -23.79728˚ 133.88654˚ - 0 nm - -
TINEN FIX - 0 ft / 0 m -12.66913˚ 130.93786˚ 689 nm 689 nm 345° / 346° -
O YPDN APT - 0 ft / 0 m -12.40889˚ 130.87067˚ 16 nm 705 nm 346° / 346° -

Altitude Profile

Advertisement - Login to hide

Weather


0- 5 10 15 20 25 30 35+ Temperature / ° C

Clouds and Precipitation
Forecast for 2017-12-18 12:00 UTC. Updated 2 hours ago

Ground ~20,000 ft ~40,000 ft Winds

YBAS

Details ICAO YBAS (ASP)
Name Alice Springs
Region Australia
Timezone Australia/Darwin (UTC+9.5)
Stats Elevation 1,789 ft / 545 m (AMSL)
Location -23.804452° 133.895220°
Runways 2
Magnetic Variation 4.597° E

METAR

YBAS 181300Z AUTO 32010KT 9999 // NCD 36/09 Q1007

Decode

TAF

TAF AMD YBAS 181124Z 1812/1912 32006KT CAVOK FM182300 29014KT CAVOK PROB30 TEMPO 1902/1912 VRB35G45KT 2000 TSRA BKN050 SCT080CB

Decode

Departure Runways

ID Width Length Bearing (true) Bearing (mag) Surface Threshold Offset Overrun Length
12 148 ft / 45 m 7,996 ft / 2,437 m 120.40° 115.80° Asphalt 0 ft / 0 m 0 ft / 0 m
17 59 ft / 18 m 3,729 ft / 1,137 m 178.24° 173.64° Asphalt 0 ft / 0 m 0 ft / 0 m
30 148 ft / 45 m 7,996 ft / 2,437 m 300.40° 295.80° Asphalt 0 ft / 0 m 0 ft / 0 m
35 59 ft / 18 m 3,729 ft / 1,137 m 358.24° 353.64° Asphalt 0 ft / 0 m 0 ft / 0 m

YPDN

Details ICAO YPDN (DRW)
Name Darwin Intl
Region Australia
Timezone Australia/Darwin (UTC+9.5)
Stats Elevation 102 ft / 31 m (AMSL)
Location -12.415064° 130.875278°
Runways 2
Magnetic Variation 2.669° E

METAR

YPDN 181230Z 31005KT 9999 FEW024 SCT370 30/24 Q1008

Decode

TAF

TAF YPDN 181125Z 1812/1918 33008KT 9999 SCT020

Decode

Destination Runways

ID Width Length Bearing (true) Bearing (mag) Surface Threshold Offset Overrun Length
11 197 ft / 60 m 10,997 ft / 3,352 m 109.02° 106.35° Asphalt 0 ft / 0 m 0 ft / 0 m
18 98 ft / 30 m 5,029 ft / 1,533 m 179.85° 177.18° Asphalt 0 ft / 0 m 0 ft / 0 m
29 197 ft / 60 m 10,997 ft / 3,352 m 289.02° 286.35° Asphalt 0 ft / 0 m 0 ft / 0 m
36 98 ft / 30 m 5,029 ft / 1,533 m 359.85° 357.18° Asphalt 0 ft / 0 m 0 ft / 0 m

Approach Navaids

Runway Type Ident Frequency Range Bearing (true) Bearing (mag) Slope Elevation
29 Localiser IDN 109.70 MHz 18 nm / 33 km 289.00° 286.33° - 103 ft / 31 m (AMSL)
29 Glidescope IDN 109.70 MHz 10 nm / 19 km 289.02° 286.35° 3.00° 103 ft / 31 m (AMSL)

Popular Alternatives